Simultaneous Nadir Overpasses (SNOs) Predictions

Prediction of SNOs between METOP-A and NOAA-19 Satellite Orbit:

Table of predicted SNOs for the next 14.0 days since TLE Epoch: 1/6/2017
Index Date (METOP-A) Time (METOP-A) Lat,Lon (METOP-A) SZA (METOP-A ) Date (NOAA-19) Time (NOAA-19) Lat,Lon (NOAA-19) SZA (NOAA-19 ) Distance(km) Time Diff (sec)
1 01/09/2017 11:16:31 -76.76,-166.43 81.28 01/09/2017 11:15:28 -76.80,-166.42 81.25 3.88 63
2 01/09/2017 12:07:11 76.76, 0.89 98.71 01/09/2017 12:06:24 76.79, 0.87 98.75 3.73 47
3 01/09/2017 12:57:53 -76.74, 168.15 81.31 01/09/2017 12:57:29 -76.76, 168.22 81.29 2.89 24
4 01/09/2017 13:48:33 76.74, -24.52 98.68 01/09/2017 13:48:25 76.76, -24.49 98.70 2.32 8
5 01/09/2017 14:39:15 -76.72, 142.74 81.34 01/09/2017 14:39:30 -76.73, 142.85 81.34 3.07 15
6 01/09/2017 15:29:55 76.72, -49.94 98.65 01/09/2017 15:30:26 76.72, -49.86 98.66 2.17 31
7 01/09/2017 16:20:37 -76.70, 117.32 81.38 01/09/2017 16:21:32 -76.74, 117.31 81.34 4.12 55
8 01/09/2017 17:11:17 76.70, -75.36 98.62 01/09/2017 17:12:27 76.69, -75.23 98.62 3.42 70
9 01/20/2017 04:02:57 -76.81, -57.83 83.18 01/20/2017 04:01:52 -76.82, -57.86 83.17 1.13 65
10 01/20/2017 04:53:37 76.81, 109.50 96.82 01/20/2017 04:52:48 76.81, 109.46 96.82 1.07 49
11 01/20/2017 05:44:19 -76.79, -83.25 83.22 01/20/2017 05:43:53 -76.79, -83.22 83.22 0.85 26
12 01/20/2017 06:34:59 76.79, 84.07 96.78 01/20/2017 06:34:49 76.78, 84.09 96.77 1.33 10
13 01/20/2017 07:25:41 -76.77,-108.68
